Location: Amsterdam
(30.7274°N, 84.4357°W)
Time: 15:25:44
(UTC+00:00)

Vanguard 1 Rocket - Pass Details

Date: 20 February 2026
Orbit: 653 x 4214 km, 34.3° (Epoch: 6 March)

Event Time Altitude Azimuth Distance (km) Brightness Sun altitude
Rises 00:50:24 0° 289° (WNW) 6,563 13.1 -18.2°
Reaches altitude 10° 00:54:14 10° 285° (WNW) 5,929 12.6 -19.0°
Maximum altitude 01:14:01 54° 215° (SW) 4,582 11.0 -23.2°
Drops below altitude 10° 01:38:39 10° 146° (SE) 7,104 11.6 -28.5°
Sets 01:43:56 0° 141° (SE) 7,861 11.8 -29.7°
